OPTUS 10

Last updated on May 20, 2019, 3:09 a.m. UTC

1 40146U 14054A   19139.83863260 -.00000157  00000-0  00000+0 0  9991
2 40146   0.0449 318.0038 0002735 119.0494 258.0800  1.00271251 17192
UTC
Height (km)
Latitude
Longitude
Inclination
Orbital Period
UTC large
Height (km)
Speed (km/s)
/
Latitude / Longitude
Inclination (degrees)
Orbital Period (minutes)
Azimuth
Elevation
Range (km)
Doppler Factor
iOS Compass Heading
iOS Angle

Next 30 passes for location: Hong Kong

Rise time Rise Azimuth (degrees) Set time Set Azimuth (degrees) Duration Max altitude (degrees)

No matching passes for this satellites